• In Deutschland
  • Länderverzeichnis
  • Für 7 Tage
  • Wassertemperatur
  • Satellitenkarten
  • Wetterkarte
  • Widgets
  • user-avatar
    Anmelden

    Stündliche Wetter Hamhŭng

    Heute, 17 August, Donnerstag

    Zeit Temperatur Niederschläge Wind Luftdruck Luftfeuchtigkeit
    00:00 +21°C° 0,7 mm 3 m/S 754 mmHg 94%
    01:00 +21°C° 1,8 mm 3 m/S 754 mmHg 94%
    02:00 +21°C° 1,8 mm 3 m/S 754 mmHg 95%
    03:00 +21°C° 0 mm 4 m/S 754 mmHg 96%
    04:00 +21°C° 2,3 mm 4 m/S 754 mmHg 96%
    05:00 +21°C° 2,3 mm 3 m/S 754 mmHg 96%
    06:00 +21°C° 2,3 mm 3 m/S 754 mmHg 95%
    07:00 +21°C° 1,5 mm 3 m/S 754 mmHg 95%
    08:00 +21°C° 1,5 mm 3 m/S 755 mmHg 95%
    09:00 +21°C° 0 mm 3 m/S 755 mmHg 94%
    10:00 +21°C° 1 mm 3 m/S 755 mmHg 94%
    11:00 +21°C° 1 mm 3 m/S 755 mmHg 94%
    12:00 +21°C° 1 mm 3 m/S 755 mmHg 94%
    13:00 +21°C° 0,7 mm 3 m/S 755 mmHg 93%
    14:00 +22°C° 0,7 mm 3 m/S 755 mmHg 93%
    15:00 +21°C° 0 mm 4 m/S 755 mmHg 93%
    16:00 +21°C° 0,8 mm 4 m/S 755 mmHg 93%
    17:00 +21°C° 0,8 mm 3 m/S 755 mmHg 93%
    18:00 +21°C° 0,8 mm 3 m/S 755 mmHg 92%
    19:00 +21°C° 0,5 mm 3 m/S 755 mmHg 93%
    20:00 +21°C° 0,5 mm 3 m/S 755 mmHg 93%
    21:00 +21°C° 0 mm 3 m/S 756 mmHg 94%
    22:00 +21°C° 0,5 mm 3 m/S 756 mmHg 94%
    23:00 +21°C° 0,5 mm 3 m/S 756 mmHg 94%

    Morgen, 18 August, Freitag

    Zeit Temperatur Niederschläge Wind Luftdruck Luftfeuchtigkeit
    00:00 +21°C° 0,5 mm 3 m/S 756 mmHg 94%
    01:00 +21°C° 0,4 mm 3 m/S 756 mmHg 94%
    02:00 +21°C° 0,4 mm 3 m/S 756 mmHg 94%
    03:00 +21°C° 0,4 mm 3 m/S 756 mmHg 94%
    04:00 +21°C° 0,4 mm 3 m/S 756 mmHg 94%
    05:00 +21°C° 0,4 mm 3 m/S 756 mmHg 94%
    06:00 +21°C° 0,4 mm 3 m/S 756 mmHg 94%
    07:00 +21°C° 0,7 mm 3 m/S 756 mmHg 93%
    08:00 +22°C° 0,7 mm 3 m/S 757 mmHg 92%
    09:00 +22°C° 0,7 mm 3 m/S 757 mmHg 91%
    10:00 +22°C° 0,7 mm 3 m/S 757 mmHg 92%
    11:00 +22°C° 0,7 mm 3 m/S 757 mmHg 92%
    12:00 +24°C° 0,7 mm 3 m/S 757 mmHg 92%
    13:00 +22°C° 0,4 mm 3 m/S 757 mmHg 93%
    14:00 +23°C° 0,4 mm 2 m/S 756 mmHg 93%
    15:00 +23°C° 0,4 mm 2 m/S 756 mmHg 93%
    16:00 +24°C° 0,1 mm 2 m/S 757 mmHg 93%
    17:00 +24°C° 0,1 mm 2 m/S 757 mmHg 93%
    18:00 +24°C° 0,1 mm 2 m/S 757 mmHg 92%
    19:00 +23°C° 0,1 mm 2 m/S 757 mmHg 93%
    20:00 +23°C° 0,1 mm 2 m/S 757 mmHg 94%
    21:00 +23°C° 0,1 mm 1 m/S 757 mmHg 95%
    22:00 +22°C° 0,1 mm 1 m/S 758 mmHg 95%
    23:00 +22°C° 0,1 mm 1 m/S 758 mmHg 95%

    übermorgen, 19 August, Samstag

    Zeit Temperatur Niederschläge Wind Luftdruck Luftfeuchtigkeit
    00:00 +22°C° 0,1 mm 1 m/S 758 mmHg 95%
    01:00 +22°C° 0,1 mm 1 m/S 758 mmHg 95%
    02:00 +22°C° 0,1 mm 1 m/S 758 mmHg 94%
    03:00 +22°C° 0,1 mm 1 m/S 758 mmHg 94%
    04:00 +22°C° 0 mm 1 m/S 758 mmHg 94%
    05:00 +22°C° 0 mm 1 m/S 758 mmHg 94%
    06:00 +22°C° 0 mm 1 m/S 758 mmHg 94%
    07:00 +23°C° 0,1 mm 1 m/S 758 mmHg 91%
    08:00 +24°C° 0,1 mm 1 m/S 758 mmHg 89%
    09:00 +25°C° 0,1 mm 1 m/S 758 mmHg 86%
    10:00 +26°C° 0,1 mm 2 m/S 758 mmHg 86%
    11:00 +26°C° 0,1 mm 2 m/S 758 mmHg 85%
    12:00 +26°C° 0,1 mm 2 m/S 758 mmHg 85%
    13:00 +27°C° 0,1 mm 2 m/S 758 mmHg 84%
    14:00 +27°C° 0,1 mm 2 m/S 757 mmHg 83%
    15:00 +27°C° 0,1 mm 2 m/S 757 mmHg 82%
    16:00 +27°C° 0,1 mm 2 m/S 757 mmHg 85%
    17:00 +26°C° 0,1 mm 2 m/S 757 mmHg 87%
    18:00 +26°C° 0,1 mm 1 m/S 757 mmHg 90%
    19:00 +25°C° 0 mm 1 m/S 758 mmHg 92%
    20:00 +24°C° 0 mm 1 m/S 758 mmHg 94%
    21:00 +24°C° 0 mm 1 m/S 758 mmHg 96%
    22:00 +23°C° 0 mm 1 m/S 758 mmHg 96%
    23:00 +23°C° 0 mm 1 m/S 758 mmHg 96%

    20 August, Sonntag

    Zeit Temperatur Niederschläge Wind Luftdruck Luftfeuchtigkeit
    00:00 +23°C° 0 mm 1 m/S 758 mmHg 96%
    01:00 +23°C° 0 mm 1 m/S 758 mmHg 95%
    02:00 +23°C° 0 mm 1 m/S 758 mmHg 95%
    03:00 +23°C° 0 mm 1 m/S 758 mmHg 94%
    04:00 +22°C° 0 mm 1 m/S 758 mmHg 94%
    05:00 +22°C° 0 mm 1 m/S 758 mmHg 94%
    06:00 +22°C° 0 mm 1 m/S 758 mmHg 95%
    07:00 +23°C° 0 mm 1 m/S 758 mmHg 90%
    08:00 +25°C° 0 mm 1 m/S 758 mmHg 86%
    09:00 +27°C° 0 mm 1 m/S 758 mmHg 82%
    10:00 +27°C° 0 mm 1 m/S 758 mmHg 79%
    11:00 +28°C° 0 mm 2 m/S 757 mmHg 77%
    12:00 +29°C° 0 mm 2 m/S 757 mmHg 74%
    13:00 +29°C° 0 mm 2 m/S 757 mmHg 75%
    14:00 +29°C° 0 mm 2 m/S 756 mmHg 76%
    15:00 +29°C° 0 mm 2 m/S 756 mmHg 77%
    16:00 +28°C° 0,1 mm 2 m/S 756 mmHg 81%
    17:00 +27°C° 0,1 mm 2 m/S 756 mmHg 86%
    18:00 +26°C° 0,1 mm 2 m/S 756 mmHg 90%
    19:00 +26°C° 0,1 mm 2 m/S 756 mmHg 92%
    20:00 +25°C° 0,1 mm 1 m/S 757 mmHg 94%
    21:00 +24°C° 0,1 mm 1 m/S 757 mmHg 96%
    22:00 +24°C° 0 mm 1 m/S 757 mmHg 96%
    23:00 +24°C° 0 mm 1 m/S 757 mmHg 96%

    21 August, Montag

    Zeit Temperatur Niederschläge Wind Luftdruck Luftfeuchtigkeit
    00:00 +23°C° 0 mm 1 m/S 757 mmHg 96%
    01:00 +23°C° 0 mm 1 m/S 757 mmHg 95%
    02:00 +23°C° 0 mm 1 m/S 756 mmHg 95%
    03:00 +23°C° 0 mm 1 m/S 756 mmHg 94%
    04:00 +23°C° 0 mm 1 m/S 756 mmHg 94%
    05:00 +23°C° 0 mm 1 m/S 756 mmHg 94%
    06:00 +21°C° 0 mm 2 m/S 756 mmHg 93%
    07:00 +24°C° 0 mm 1 m/S 756 mmHg 90%
    08:00 +25°C° 0 mm 1 m/S 756 mmHg 86%
    09:00 +27°C° 0 mm 1 m/S 756 mmHg 82%
    10:00 +28°C° 0 mm 1 m/S 756 mmHg 78%
    11:00 +29°C° 0 mm 2 m/S 756 mmHg 75%
    12:00 +30°C° 0 mm 2 m/S 755 mmHg 71%
    13:00 +30°C° 0 mm 2 m/S 755 mmHg 72%
    14:00 +30°C° 0 mm 2 m/S 755 mmHg 73%
    15:00 +30°C° 0 mm 2 m/S 754 mmHg 74%
    16:00 +29°C° 0 mm 2 m/S 754 mmHg 79%
    17:00 +28°C° 0 mm 2 m/S 754 mmHg 83%
    18:00 +28°C° 0 mm 1 m/S 754 mmHg 88%
    19:00 +27°C° 0 mm 1 m/S 755 mmHg 91%
    20:00 +26°C° 0 mm 1 m/S 755 mmHg 94%
    21:00 +23°C° 0 mm 0 m/S 755 mmHg 97%
    22:00 +23°C° 0 mm 0 m/S 755 mmHg 96%
    23:00 +25°C° 0 mm 1 m/S 756 mmHg 96%

    22 August, Dienstag

    Zeit Temperatur Niederschläge Wind Luftdruck Luftfeuchtigkeit
    00:00 +25°C° 0 mm 1 m/S 756 mmHg 95%
    01:00 +24°C° 0 mm 1 m/S 755 mmHg 95%
    02:00 +24°C° 0 mm 1 m/S 755 mmHg 94%
    03:00 +24°C° 0 mm 1 m/S 755 mmHg 94%
    04:00 +24°C° 0 mm 1 m/S 755 mmHg 93%
    05:00 +24°C° 0 mm 1 m/S 756 mmHg 92%
    06:00 +24°C° 0 mm 1 m/S 756 mmHg 92%
    07:00 +26°C° 0 mm 1 m/S 756 mmHg 85%
    08:00 +28°C° 0 mm 1 m/S 756 mmHg 78%
    09:00 +30°C° 0 mm 1 m/S 756 mmHg 72%
    10:00 +32°C° 0 mm 1 m/S 756 mmHg 66%
    11:00 +34°C° 0 mm 2 m/S 756 mmHg 61%
    12:00 +36°C° 0 mm 2 m/S 756 mmHg 56%
    13:00 +36°C° 0,2 mm 2 m/S 755 mmHg 58%
    14:00 +35°C° 0,2 mm 2 m/S 755 mmHg 61%
    15:00 +35°C° 0,2 mm 2 m/S 755 mmHg 63%
    16:00 +34°C° 0,2 mm 2 m/S 755 mmHg 69%
    17:00 +32°C° 0,2 mm 2 m/S 755 mmHg 75%
    18:00 +32°C° 0,2 mm 2 m/S 755 mmHg 81%
    19:00 +30°C° 0,1 mm 1 m/S 756 mmHg 85%
    20:00 +28°C° 0,1 mm 1 m/S 756 mmHg 89%
    21:00 +27°C° 0,1 mm 1 m/S 757 mmHg 93%
    22:00 +27°C° 0,3 mm 1 m/S 757 mmHg 92%
    23:00 +26°C° 0,3 mm 1 m/S 757 mmHg 91%
    Mehr zeigen